Location: Eastlake (historical)
(39.0077°N, 122.6678°W)
Time: 07:50:43
(UTC+00:00)

ERS-2 - Pass Details

Date: 25 November 2020
Orbit: 492 x 498 km, 98.6° (Epoch: 25 January)

Event Time Altitude Azimuth Distance (km) Brightness Sun altitude
Rises 13:31:41 0° 184° (S) 2,557 5.8 -17.9°
Reaches altitude 10° 13:33:51 10° 193° (SSW) 1,682 4.8 -17.5°
Enters shadow 13:37:06 35° 257° (WSW) 815 2.7 -16.9°
